Mona RAF, United Kingdom

11:39 AM GMT on December 05, 2016 (GMT +0000)
Valley Air Base

Weather History for EGOV - November, 2012

Change the Weather History Date:

Monday, November 5, 2012

  Actual Average Record
Temperature  
Mean Temperature 41 °F -  
Max Temperature 49 °F 52 °F 60 °F (2003)
Min Temperature 33 °F 46 °F 33 °F (2012)
Degree Days  
Heating Degree Days 24    
Moisture  
Dew Point 38 °F    
Average Humidity 82    
Maximum Humidity 93    
Minimum Humidity 52    
Precipitation  
Precipitation 0.02 in - - ()
Sea Level Pressure  
Sea Level Pressure 29.83 in    
Wind  
Wind Speed 6 mph ()    
Max Wind Speed 10 mph    
Max Gust Speed -    
Visibility 8.3 miles    
Events Rain    
Averages and records for this station are not official NWS values.
T = Trace of Precipitation, MM = Missing Value Source: Averaged Metar Reports

Daily Weather History Graph

Daily Weather History Graph

Search for Another Location

Airport or City:

Trip Planner

Search our weather history database for the weather conditions in past years. The results will help you decide how hot, cold, wet, or windy it might be!

Date:

Astronomy

Nov. 05, 2012 Rise Set
Actual Time 7:24 AM GMT 4:37 PM GMT
Civil Twilight 6:47 AM GMT 5:15 PM GMT
Nautical Twilight 6:05 AM GMT 5:56 PM GMT
Astronomical Twilight 5:25 AM GMT 6:37 PM GMT
Moon 10:00 PM GMT 12:39 PM GMT
Length of Visible Light 10h 27m
Length of Day
9h 13m
Waning Gibbous, 65% of the Moon is Illuminated
Nov 5
Waning Gibbous
Nov 7
Last Quarter
Nov 13
New
Nov 20
First Quarter
Nov 28
Full

Hourly Weather History & Observations

Time (GMT) Temp. Windchill Dew Point Humidity Pressure Visibility Wind Dir Wind Speed Gust Speed Precip Events Conditions
12:50 AM 41.0 °F 34.7 °F 37.4 °F 87% 29.53 in 6.2 mi ENE 10.4 mph - N/A   Unknown
1:50 AM 41.0 °F 35.8 °F 37.4 °F 87% 29.56 in 6.2 mi NE 8.1 mph - N/A   Unknown
2:50 AM 41 °F - 36 °F 76% 29.61 in 19 mi NE 10.4 mph - -  
2:50 AM 41.0 °F 34.7 °F 35.6 °F 81% 29.59 in 6.2 mi NE 10.4 mph - N/A   Unknown
3:50 AM 41.0 °F 36.4 °F 35.6 °F 81% 29.62 in 6.2 mi NNE 6.9 mph - N/A   Unknown
4:50 AM 39.2 °F 35.0 °F 35.6 °F 87% 29.65 in 6.2 mi NE 5.8 mph - N/A   Unknown
5:50 AM 35 °F - 34 °F 92% 29.70 in 25 mi NNE 4.6 mph - -  
5:50 AM 35.6 °F 31.7 °F 33.8 °F 93% 29.68 in - NNE 4.6 mph - N/A   Clear
6:50 AM 35.6 °F 31.7 °F 33.8 °F 93% 29.71 in 6.2 mi NNE 4.6 mph - N/A   Partly Cloudy
7:50 AM 33.8 °F 29.6 °F 32.0 °F 93% 29.74 in 6.2 mi NNE 4.6 mph - N/A   Partly Cloudy
8:50 AM 37 °F - 35 °F 90% 29.78 in 19 mi NNE 4.6 mph - -   Scattered Clouds
8:50 AM 37.4 °F 33.8 °F 35.6 °F 93% 29.77 in 6.2 mi NNE 4.6 mph - N/A   Partly Cloudy
9:50 AM 44.6 °F - 39.2 °F 81% 29.80 in 6.2 mi NNW 1.2 mph - N/A   Partly Cloudy
10:50 AM 48.2 °F - 39.2 °F 71% 29.80 in 6.2 mi North 10.4 mph - N/A   Partly Cloudy
11:50 AM 50 °F - 38 °F 52% 29.84 in 19 mi North 9.2 mph - -   Scattered Clouds
11:50 AM 50.0 °F - 37.4 °F 62% 29.83 in 6.2 mi North 9.2 mph - N/A   Mostly Cloudy
12:50 PM 46.4 °F 45.2 °F 41.0 °F 81% 29.83 in 6.2 mi WNW 3.5 mph - N/A   Partly Cloudy
1:50 PM 46.4 °F 41.9 °F 41.0 °F 81% 29.86 in 6.2 mi WNW 9.2 mph - N/A Rain Light Rain Showers
2:50 PM 48 °F - 41 °F 70% 29.88 in 22 mi West 5.8 mph - - Rain Light Rain Showers
2:50 PM 48.2 °F - 41.0 °F 76% 29.86 in 6.2 mi West 5.8 mph - N/A   Partly Cloudy
3:50 PM 46.4 °F 42.9 °F 41.0 °F 81% 29.89 in 6.2 mi NNW 6.9 mph - N/A   Partly Cloudy
4:50 PM 44.6 °F 42.2 °F 41.0 °F 87% 29.89 in 6.2 mi NNW 4.6 mph - N/A   Partly Cloudy
5:50 PM 46 °F - 41 °F 77% 29.94 in 22 mi NNW 6.9 mph - -   Partly Cloudy
5:50 PM 46.4 °F 42.9 °F 41.0 °F 81% 29.92 in 6.2 mi NNW 6.9 mph - N/A   Partly Cloudy
6:50 PM 44.6 °F 41.4 °F 41.0 °F 87% 29.95 in 6.2 mi NNE 5.8 mph - N/A   Scattered Clouds
7:50 PM 46.4 °F 42.9 °F 41.0 °F 81% 29.98 in 6.2 mi North 6.9 mph - N/A Rain Light Rain Showers
8:50 PM 43 °F - 40 °F 87% 30.01 in 19 mi North 5.8 mph - - Rain Light Rain Showers
8:50 PM 42.8 °F 39.3 °F 41.0 °F 93% 30.01 in 6.2 mi North 5.8 mph - N/A Rain Light Rain Showers
9:50 PM 44.6 °F 41.4 °F 41.0 °F 87% 30.04 in 6.2 mi NE 5.8 mph - N/A   Partly Cloudy
10:50 PM 44.6 °F - 41.0 °F 87% 30.04 in 6.2 mi ENE 2.3 mph - N/A   Mostly Cloudy
11:50 PM 46 °F - 40 °F 74% 30.07 in 14 mi NNW 9.2 mph - -   Partly Cloudy
11:50 PM 46.4 °F 41.9 °F 41.0 °F 81% 30.06 in 6.2 mi NNW 9.2 mph - N/A   Scattered Clouds